COSMOS 1275 DEB

Satellite information

Favourite Embed

Satellite Type and Status

DEBRISIN ORBIT

Key statistics

Satellite COSMOS 1275 DEB at a glance.

Uptime

16214

Days in orbit

Revolutions

≈ 14.1

Per day

Orbit

LEO

Low Earth Orbit

Inclination

82.9

Latest

Satellite identification and parameters

Extended collection of information and parameters for COSMOS 1275 DEB.

Object identification

Identified? True

Debris? True

Object name: COSMOS 1275 DEB

International designator: 1981-053AD

Object number (NORAD): 12673

Object ID (CCSDS): 12673

Country: COMMONWEALTH OF INDEPENDENT STATES (CIS)

Current information (Y/N): Y

RCS size: MEDIUM

Orbital parameters

Period: 102.049 minutes

Inclination: 82.8505 deg

SMA: 7233.814 km

Apoapsis: 884.556 km

Periapsis: 826.801 km

RAAN: 330.6247 deg

Eccentricy: 0.003992

Argument of periapsis: 187.0779 deg

Mean anomaly: 342.5273 deg

Mean motion: 14.11080466 rev/day

Mean motion (dot): 0.00003017 rev/day2

B* drag term: 0.0016563 1/REarth

Two-line elements (TLE)

Creation date: Oct. 23, 2025, 10:16 p.m.

Reference frame: TEME

Reference center: EARTH

Epoch: Oct. 23, 2025, 2:22 p.m. UTC

TLE line 0: 0 COSMOS 1275 DEB

TLE line 1: 1 12673U 81053AD 25296.59929662 .00003017 00000-0 16563-2 0 9992

TLE line 2: 2 12673 82.8505 330.6247 0039920 187.0779 342.5273 14.11080466241516

Live tracking on map

Real-time ground track for satellite COSMOS 1275 DEB.

In-orbit conjunctions

A list of the most updated potential collisions computed for object COSMOS 1275 DEB.

Target Orbit TCA Probability of collision Miss distance Type
CZ-4C DEB SSO 2025-10-11 14:22:29 0.0002933742 168.0 (m) DEBRIS
FENGYUN 1C DEB SSO 2025-01-09 16:52:59 0.0001460373 168.0 (m) DEBRIS
CZ-6A DEB SSO 2024-12-06 09:37:34 0.0001184602 543.0 (m) DEBRIS
FENGYUN 1C DEB SSO 2024-11-28 19:04:44 0.0001259318 95.0 (m) DEBRIS

Associated space launch

Navigation satellite providing location information for the Tsiklon-B navigation system

COSMOS 1275 DEB was lifted into orbit during the mission ‘Kosmos-3M | Parus 27’, on board a Kosmos-3M space rocket.

The launch took place on June 4, 1981, 3:41 p.m. from 132/2.

For more information about the launch, click the button.

Launch to space Kosmos-3M | Parus 27
Kosmos-3M | Parus 27

Agency: N/A

Status: Launch Successful

Launch date: June 4, 1981, 3:41 p.m. UTC

Rocket: Kosmos-3M

Launch pad: 132/2

Location: Plesetsk Cosmodrome, Russian Federation

...

Latest news about this satellite

There are no fresh news available about this satellite. Check back as we update our databases every day.


Newsletter sign-up

Weekly statistics, charts and insights to help you stay on top of the space industry.